Location: Brno
(49.2000°N, 16.6330°E)
Time: 13:31:08
(UTC+02:00)

SR - Visible Passes

Search period start: 03 August 2021 00:00
Search period end: 13 August 2021 00:00
Orbit: 577 x 877 km, 66.7° (Epoch: 02 August)

Date Brightness Start Highest point End Pass type
(mag) Time Alt. Az. Time Alt. Az. Time Alt. Az.
07 Aug ? 04:15:58 10° SSE 04:19:43 18° ESE 04:23:19 10° ENE visible
09 Aug ? 04:16:52 10° S 04:21:48 30° ESE 04:26:29 10° NE visible
10 Aug ? 03:28:49 10° SE 03:32:19 17° ESE 03:35:43 10° ENE visible
11 Aug ? 04:18:29 10° SSW 04:24:01 50° ESE 04:29:12 10° NE visible
12 Aug ? 03:30:08 12° SSE 03:34:24 28° ESE 03:38:59 10° NE visible
